Location: Newark
(49.8969°N, 3.3422°E)
Time: 00:04:23
(UTC+00:00)

Vanguard 1 Rocket - Pass Details

Date: 22 January 2020
Orbit: 650 x 4226 km, 34.3° (Epoch: 20 February)

Event Time Altitude Azimuth Distance (km) Brightness Sun altitude
Rises 13:21:58 0° 259° (W) 5,351 11.8 17.9°
Reaches altitude 10° 13:25:03 10° 253° (WSW) 4,736 11.7 17.8°
Maximum altitude 13:38:38 45° 187° (S) 3,986 11.8 16.9°
Drops below altitude 10° 14:00:37 10° 125° (SE) 7,370 12.1 15.3°
Sets 14:07:04 0° 120° (ESE) 8,468 12.3 14.8°
